Hourly Data Report for October 02, 2017

All times are specified in Local Standard Time (LST). Add 1 hour to adjust for Daylight Saving Time where and when it is observed.

WHITE ROCK CAMPBELL SCIENTIFIC
BRITISH COLUMBIA

49°01'05.000" N
122°47'02.000" W
13.00 m
1108910
71785
WWK

Download Data

Hourly Data (October 2017)
Hourly Data Report for October 2, 2017
Temp Definition
°C
Dew Point Temp Definition
°C
Rel Hum Definition
%
Wind Dir Definition
10's deg

Wind Spd Definition
km/h
Visibility Definition
km
Stn Press Definition
kPa
Hmdx Definition


Wind Chill Definition


Weather Definition


TIME
00:00 9.1 7.7 91 4 2   101.93     LegendNANA
01:00 9.4 7.4 87 5 5   101.94     LegendNANA
02:00 9.7 7.2 84 2 3   101.94     LegendNANA
03:00 9.1 7.0 87 3 4   101.95     LegendNANA
04:00 8.3 7.0 91 36 3   101.97     LegendNANA
05:00 8.0 6.9 93 6 3   102.00     LegendNANA
06:00 7.0 6.2 94 3 2   102.00     LegendNANA
07:00 8.2 7.5 95 1 4   102.03     LegendNANA
08:00 10.7 8.6 87 7 3   102.03     LegendNANA
09:00 12.9 8.6 75 18 4   102.05     LegendNANA
10:00 14.4 9.1 70 21 3   102.06     LegendNANA
11:00 16.5 7.5 55 22 2   102.06     LegendNANA
12:00 19.3 4.3 37 9 5   102.07     LegendNANA
13:00 18.3 6.1 45 23 3   102.05     LegendNANA
14:00 19.4 4.3 37 21 5   102.06     LegendNANA
15:00 18.9 6.8 45 32 6   102.05     LegendNANA
16:00 18.0 6.4 47 28 2   102.07     LegendNANA
17:00 16.9 5.7 48 31 3   102.11     LegendNANA
18:00 15.4 5.7 53 31 3   102.15     LegendNANA
19:00 14.7 5.0 52 34 5   102.19     LegendNANA
20:00 12.4 6.5 68 2 5   102.28     LegendNANA
21:00 13.3 4.9 57 2 4   102.29     LegendNANA
22:00 12.9 3.6 53 4 3   102.32     LegendNANA
23:00 12.0 5.0 62 3 4   102.35     LegendNANA

Notes on Data Quality.

Legend

  • E = Estimated
  • M = Missing
  • NA = Not Available
  • ‡ = Partner data that is not subject to review by the National Climate Archives
Date modified: